Home > Weather > Iqaluit > Past weeks

Flag for Canada Past Weather in Iqaluit, Nunavut, Canada — Yesterday and Last 2 Weeks

Now
37 °F

Fog.


Feels Like: 35 °F
Forecast: 43 / 54 °F
Wind: 3 mph from South

Location: Iqaluit

Current Time: Jul 25, 2016 at 4:16:42 AM

Latest Report: Jul 25, 2016 at 3:00 AM


Visibility: 1 mi

Pressure: 30.14 "Hg

Humidity: 100%

Dew Point: 37 °F

Location of IqaluitLocation

Past Weather in Iqaluit — Graph

°F

Iqaluit Temperature Yesterday

Maximum temperature yesterday: 45 °F (at 7:00 PM)
Minimum temperature yesterday: 37 °F (at 2:00 PM)
Average temperature yesterday: 40 °F

High & Low Weather Summary for the Past Weeks

 TemperatureHumidityPressure
High52 °F (Jul 18, 4:00 PM)100% (Jul 10, 5:00 AM)30.14 "Hg (Jul 10, 5:00 AM)
Low34 °F (Jul 13, 11:00 PM)62% (Jul 18, 7:00 PM)29.15 "Hg (Jul 16, 7:00 AM)
Average41 °F90%29.73 "Hg
* Reported Jul 10 3:00 AM — Jul 25 3:00 AM, Iqaluit, Weather by CustomWeather, © 2016

Note: Actual official high and low records may vary slightly from our data, if they occured in-between our weather recording intervals... More about our weather records

Advertising

Iqaluit Weather History for the Previous 24 Hours

Scroll right to see more
 ConditionsComfort  
Time TempWeatherWind HumidityBarometerVisibility
3:00 AM
Mon, Jul 25
37 °FFog.3 mph100%30.14 "Hg1 mi
2:52 AM37 °FFog.6 mph100%30.14 "Hg1 mi
2:00 AM37 °FLow clouds.6 mph93%30.12 "Hg12 mi
1:45 AM37 °FMostly cloudy.9 mph93%30.12 "Hg12 mi
1:00 AM39 °FOvercast.10 mph93%30.11 "Hg15 mi
12:00 AM39 °FMostly cloudy.8 mph93%30.11 "Hg15 mi
11:00 PM
Sun, Jul 24
41 °FMostly cloudy.6 mph93%30.09 "Hg12 mi
10:00 PM41 °FMore clouds than sun.5 mph93%30.08 "Hg15 mi
9:45 PM41 °FBroken clouds.5 mph93%30.09 "Hg20 mi
9:00 PM41 °FPartly sunny.3 mph93%30.08 "Hg30 mi
8:00 PM41 °FPartly sunny.6 mph93%30.06 "Hg20 mi
7:00 PM45 °FDrizzle. Broken clouds.6 mph87%30.06 "Hg20 mi
6:00 PM41 °FBroken clouds.2 mph93%30.05 "Hg25 mi
5:00 PM41 °FBroken clouds.6 mph93%30.05 "Hg30 mi
4:00 PM41 °FBroken clouds.6 mph93%30.04 "Hg25 mi
3:00 PM39 °FBroken clouds.8 mph93%30.03 "Hg20 mi
2:00 PM37 °FDrizzle. Fog.7 mph100%30.03 "Hg2 mi
1:00 PM39 °FDrizzle. Fog.7 mph93%30.02 "Hg3 mi
12:00 PM39 °FDrizzle. Fog.8 mph93%30.02 "Hg3 mi
11:00 AM39 °FDrizzle. Fog.9 mph93%30.01 "Hg3 mi
10:00 AM39 °FDrizzle. Fog.9 mph100%30.00 "Hg5 mi
9:00 AM41 °FDrizzle. Fog.6 mph100%29.98 "Hg5 mi
8:00 AM39 °FDrizzle. Fog.7 mph100%29.97 "Hg1 mi
7:00 AM39 °FDrizzle. Fog.No wind100%29.97 "Hg1 mi
6:00 AM39 °FFog.5 mph93%29.96 "Hg4 mi
5:00 AM39 °FFog.7 mph93%29.96 "Hg5 mi
4:00 AM39 °FDrizzle. Fog.8 mph100%29.95 "Hg4 mi
Weather by CustomWeather, © 2016

See weather overviewHow to use our weather pages